This demonstration page uses our WeatherBlox Daily Observations layout. Learn more.

41.55636, -103.73856

Hourly Observations for April 11, 2019

Temp ( °F °C ) Dew Point ( °F °C ) Humidity (%) Winds ( mph kmh ) Pressure ( in mb ) Visibility ( mi km ) Precip ( " mm )
12:00 am 00:00 Windy with Snow Likely 22 -5.6 18 -7.8 85 85 NNW 20 31 30.03 1017 1.5 2.414016 0.001 0.001
12:48 am 00:48 Cloudy with Light Snow 21 -6 18 -8 86 86 NNW 18 30 30 1016 1.5 2.414016 0 0
12:53 am 00:53 Cloudy with Light Snow 22 -5.6 18 -7.8 85 85 NNW 18 30 29.88 1012 1.75 2.816352 0.02 0.508
1:22 am 01:22 Windy with Snow Likely 22 -5.6 18 -7.8 85 85 NNW 21 33 30 1016 2 3.218688 0.001 0.001
1:30 am 01:30 Windy with Snow Likely 21 -6 18 -8 86 86 NNW 20 31 30 1016 1.75 2.816352 0 0
1:53 am 01:53 Mostly Cloudy with Scattered Snow Showers 22 -5.6 17 -8.3 82 82 NNW 17 28 29.88 1012 1 1.609344 0.001 0.001
2:31 am 02:31 Windy with Snow Likely 22 -5.6 18 -7.8 85 85 NNW 20 31 30 1016 2 3.218688 0.01 0.254
2:53 am 02:53 Windy with Snow Likely 22 -5.6 18 -7.8 85 85 NNW 20 31 29.88 1012 3 4.828032 0.02 0.508
3:00 am 03:00 Windy with Snow Likely 22 -5.6 18 -7.8 85 85 NNW 22 35 30 1016 4 6.437376 0.001 0.001
3:36 am 03:36 Windy with Snow Likely 21 -6.1 18 -7.8 88 88 NNW 20 31 30 1016 1.75 2.816352 0.001 0.001
3:45 am 03:45 Cloudy with Light Snow 21 -6.1 18 -7.8 88 88 NNW 14 22 30 1016 1.25 2.01168 0.001 0.001
3:53 am 03:53 Cloudy with Light Snow 21 -6.1 18 -7.8 88 88 NNW 17 28 29.88 1012 1.5 2.414016 0.001 0.001
4:18 am 04:18 Cloudy with Light Snow 21 -6.1 18 -7.8 88 88 NNW 15 24 30 1016 2 3.218688 0.001 0.001
4:29 am 04:29 Cloudy with Light Snow 21 -6.1 18 -7.8 88 88 NNW 12 19 30 1016 1.75 2.816352 0.01 0.254
4:53 am 04:53 Cloudy with Light Snow 20 -6.7 17 -8.3 89 89 NNW 16 26 29.88 1012 1.25 2.01168 0.01 0.254
5:16 am 05:16 Mostly Cloudy with Scattered Snow Showers 19 -7 18 -8 93 93 NNW 15 24 29.97 1015 1 1.609344 0 0
5:41 am 05:41 Cloudy with Light Snow 19 -7 18 -8 93 93 NNW 15 24 29.97 1015 1.5 2.414016 0 0
5:53 am 05:53 Cloudy with Light Snow 20 -6.7 17 -8.3 89 89 NNW 15 24 29.88 1012 1.5 2.414016 0.03 0.762
6:29 am 06:29 Cloudy with Light Snow 20 -6.7 16 -8.9 85 85 NW 13 20 29.97 1015 2.5 4.02336 0.001 0.001
6:46 am 06:46 Cloudy with Light Snow 20 -6.7 17 -8.3 89 89 NNW 14 22 29.97 1015 1.75 2.816352 0.01 0.254
6:53 am 06:53 Cloudy with Light Snow 20 -6.7 16 -8.9 85 85 NW 12 19 29.88 1012 1.75 2.816352 0.01 0.254
7:00 am 07:00 Cloudy with Light Snow 20 -6.7 17 -8.3 89 89 NW 8 13 29.97 1015 1.5 2.414016 0.001 0.001
7:53 am 07:53 Cloudy with Light Snow 21 -6.1 18 -7.8 88 88 NW 15 24 29.85 1011 1.5 2.414016 0.001 0.001
8:33 am 08:33 Cloudy with Light Snow 23 -5 19 -7.2 85 85 NW 17 28 29.91 1013 2.5 4.02336 0.001 0.001
8:53 am 08:53 Windy with Snow Likely 24 -4.4 19 -7.2 81 81 NW 20 31 29.83 1010 2 3.218688 0.001 0.001
9:08 am 09:08 Cloudy with Light Snow 25 -4 19 -7 80 80 NNW 18 30 29.91 1013 1.75 2.816352 0 0
9:21 am 09:21 Windy with Snow Likely 24 -4.4 18 -7.8 77 77 NNW 24 39 29.91 1013 2.5 4.02336 0.001 0.001
9:28 am 09:28 Windy with Snow Likely 25 -4 18 -8 74 74 NNW 30 48 29.91 1013 3 4.828032 0 0
9:53 am 09:53 Windy with Snow Likely 25 -3.9 18 -7.8 75 75 NNW 22 35 29.83 1010 3 4.828032 0.001 0.001
10:34 am 10:34 Windy with Snow Likely 25 -3.9 19 -7.2 78 78 NW 28 44 29.88 1012 2.5 4.02336 0.001 0.001
10:48 am 10:48 Windy with Snow Likely 27 -3 19 -7 74 74 NW 28 44 29.85 1011 3 4.828032 0 0
10:53 am 10:53 Windy with Snow Likely 26 -3.3 19 -7.2 75 75 NW 24 39 29.83 1010 5 8.04672 0.001 0.001
11:53 am 11:53 Windy with Snow Likely 27 -2.8 20 -6.7 75 75 NW 24 39 29.8 1009 8 12.874752 0.001 0.001
12:53 pm 12:53 Windy with Snow Likely 27 -2.8 20 -6.7 75 75 NW 28 44 29.8 1009 7 11.265408 0.001 0.001
1:53 pm 13:53 Cloudy 28 -2.2 20 -6.7 72 72 NW 25 41 29.8 1009 10 16.09344 0.001 0.001
2:53 pm 14:53 Cloudy with Light Wintry Mix 29 -1.7 22 -5.6 75 75 NW 22 35 29.8 1009 9 14.484096 0.001 0.001
3:42 pm 15:42 Windy with Snow Likely 28 -2 21 -6 74 74 NNW 23 37 29.85 1011 2.5 4.02336 0 0
3:53 pm 15:53 Windy with Snow Likely 29 -1.7 22 -5.6 75 75 NNW 26 43 29.83 1010 5 8.04672 0.001 0.001
4:53 pm 16:53 Windy with Snow Likely 29 -1.7 22 -5.6 75 75 NW 23 37 29.83 1010 3 4.828032 0.001 0.001
5:22 pm 17:22 Windy with Snow Likely 28 -2 21 -6 74 74 NW 24 39 29.85 1011 2.5 4.02336 0 0
5:33 pm 17:33 Windy with Snow Likely 28 -2.2 23 -5 81 81 NNW 21 33 29.88 1012 1.75 2.816352 0.001 0.001
5:44 pm 17:44 Windy with Snow Likely 28 -2.2 22 -5.6 78 78 NW 22 35 29.88 1012 2 3.218688 0.001 0.001
5:53 pm 17:53 Windy with Snow Likely 28 -2.2 21 -6.1 75 75 NW 28 44 29.83 1010 4 6.437376 0.001 0.001
6:53 pm 18:53 Cloudy 27 -2.8 19 -7.2 72 72 NNW 21 33 29.83 1010 10 16.09344 0.001 0.001
7:53 pm 19:53 Cloudy 26 -3.3 17 -8.3 69 69 NW 21 33 29.85 1011 10 16.09344 0 0
8:53 pm 20:53 Partly Cloudy 25 -3.9 18 -7.8 75 75 NW 16 26 29.85 1011 10 16.09344 0 0
9:53 pm 21:53 Cloudy 25 -3.9 18 -7.8 75 75 NW 16 26 29.85 1011 10 16.09344 0 0
10:53 pm 22:53 Mostly Clear 25 -3.9 17 -8.3 72 72 NW 17 28 29.85 1011 10 16.09344 0 0
11:53 pm 23:53 Cloudy 25 -3.9 18 -7.8 75 75 WNW 15 24 29.85 1011 10 16.09344 0 0

Powered by AerisWeather